Location: Gleizolles
(44.4833°N, 6.7667°E)
Time: 20:59:44
(UTC+00:00)

Tiros 1 despin weight - Pass Details

Date: 01 July 2024
Orbit: 576 x 620 km, 48.2° (Epoch: 19 July)

Event Time Altitude Azimuth Distance (km) Brightness Sun altitude
Rises 14:29:30 0° 289° (WNW) 2,896 ? 48.9°
Reaches altitude 10° 14:32:03 10° 277° (W) 1,987 ? 48.4°
Maximum altitude 14:35:56 28° 219° (SW) 1,170 ? 47.8°
Drops below altitude 10° 14:39:48 10° 161° (SSE) 1,969 ? 47.1°
Sets 14:42:20 0° 149° (SSE) 2,865 ? 46.7°
